Regional Weather Roundup
Issued by NWS

Home | Current Version | Previous Version | Graphics & Text | Print | Product List | Glossary On
Versions: 1 2 3 4 5 6 7 8 9 10 11 12 13 14 15 16 17 18 19 20 21 22 23 24 25 26 27 28 29 30 31 32 33 34 35 36 37 38 39 40 41 42 43 44 45 46 47 48 49 50
000
ASUS43 KOAX 202102
RWRNE

WEATHER ROUNDUP FOR NEBRASKA
NATIONAL WEATHER SERVICE OMAHA NE
400 PM CDT MON OCT 20 2014

NOTES: SATELLITE DATA IS BEING USED TO AUGMENT CLOUD COVER ABOVE
       12000 FEET.
       "FAIR" INDICATES FEW OR NO CLOUDS BELOW 12,000 FEET WITH NO
       SIGNIFICANT WEATHER AND/OR OBSTRUCTIONS TO VISIBILITY.

  * THESE STATIONS DO NOT REPORT WEATHER SUCH AS RAIN...SNOW OR FOG.

NEZ001>004-019>022-054>056-202200-
NEBRASKA PANHANDLE

CITY           SKY/WX    TMP DP  RH WIND       PRES   REMARKS
SCOTTSBLUFF    SUNNY     80  51  36 S18G24    30.00F
ALLIANCE       SUNNY     76  37  24 S20G25    30.02F
CHADRON        SUNNY     80  43  26 S18       29.95F
KIMBALL        SUNNY     76  38  25 S14G20    30.05F
SIDNEY         SUNNY     77  36  22 S16       30.06F
$$

NEZ057>060-069>072-079>082-202200-
SOUTHWEST NEBRASKA

CITY           SKY/WX    TMP DP  RH WIND       PRES   REMARKS
NORTH PLATTE   SUNNY     77  40  26 S12       30.05F
IMPERIAL       SUNNY     76  39  26 S14G22    30.07F
LEXINGTON      SUNNY     78  41  26 SE8       30.06F
MCCOOK         SUNNY     79  40  24 SE6       30.07F
OGALLALA       SUNNY     79  38  23 S12G20    30.05F
$$

NEZ005>010-023>029-035>040-094-202200-
NORTH CENTRAL NEBRASKA

CITY           SKY/WX    TMP DP  RH WIND       PRES   REMARKS
VALENTINE      SUNNY     78  38  23 S15       30.02F
AINSWORTH      SUNNY     75  38  27 S7        30.04F
BROKEN BOW     SUNNY     76  44  32 S8        30.07F
O`NEILL        SUNNY     73  41  32 SW3       30.06F
ORD            SUNNY     73  40  30 CALM      30.05F
THEDFORD       SUNNY     79  40  24 S9G20     30.05F
$$

NEZ041-046>049-061>064-073>077-083>087-202200-
SOUTH CENTRAL NEBRASKA

CITY           SKY/WX    TMP DP  RH WIND       PRES   REMARKS
GRAND ISLAND   SUNNY     75  39  27 CALM      30.08F
AURORA         SUNNY     74  35  23 NE3       30.07F
HASTINGS       SUNNY     73  37  27 SE3       30.07F
HEBRON         SUNNY     74  35  23 CALM      30.06F
HOLDREGE       SUNNY     75  38  25 CALM      30.07S
KEARNEY *      SUNNY     73  43  33 E5        30.08F
YORK           SUNNY     72  39  30 NW7       30.06F
$$

NEZ011>018-030>034-042>045-202200-
NORTHEAST NEBRASKA

CITY           SKY/WX    TMP DP  RH WIND       PRES   REMARKS
NORFOLK        SUNNY     72  34  24 VRB6      30.05F
ALBION         SUNNY     72  36  26 CALM      30.06F
BLAIR          SUNNY     71  38  29 N6        30.04F
COLUMBUS *     SUNNY     72  32  23 CALM      30.07F
FREMONT        SUNNY     72  37  27 NW5       30.05F
TEKAMAH        SUNNY     74  37  26 NW9       30.03F
WAYNE          SUNNY     72  35  26 CALM      30.05F
$$

NEZ050>053-065>068-078-088>093-202200-
SOUTHEAST NEBRASKA

CITY           SKY/WX    TMP DP  RH WIND       PRES   REMARKS
LINCOLN        SUNNY     74  37  26 N6        30.06F
OMAHA EPPLEY   SUNNY     73  39  29 VRB6      30.04F
BEATRICE       SUNNY     73  40  29 NW8       30.06S
FALLS CITY     SUNNY     75  36  24 NW8       30.03F
NEBRASKA CITY  SUNNY     71  27  19 N3        30.04S
PLATTSMOUTH    SUNNY     70  32  24 NW6       30.05S
$$

NEZ044-045-051>053-067-202200-
OMAHA AREA

CITY           SKY/WX    TMP DP  RH WIND       PRES   REMARKS
OMAHA EPPLEY   SUNNY     73  39  29 VRB6      30.04F
BLAIR          SUNNY     71  38  29 N6        30.04F
FREMONT        SUNNY     72  37  27 NW5       30.05F
MILLARD        SUNNY     71  39  31 NW3       30.04S
OFFUTT AFB     SUNNY     71  39  31 CALM      30.04F
PLATTSMOUTH    SUNNY     70  32  24 NW6       30.05S
WAHOO          FAIR      73  29  20 NW6       30.05F
$$



USA.gov is the U.S. government's official web portal to all federal, state and local government web resources and services.